"2016-04-16 00:00:00",1550811,7.915,38.16,6.792,1.491,8.65,100.9831,1.808,3.042,83.7,0,109.9,13.2,2.57,0.2
"2016-04-16 00:00:30",1550812,8.13,38.27,6.756,1.524,8.75,100.9797,1.799,3.036,83.5,0,109.8,13.2,2.56,0.3
"2016-04-16 00:01:00",1550813,9.02,36.16,7.227,1.451,9.45,100.9729,1.782,3.034,83.3,0,109.9,13.2,2.54,358.2
"2016-04-16 00:01:30",1550814,8.2,38.85,7.201,1.406,9.19,100.9672,1.767,3.032,83,0,109.9,13.2,2.53,0.8
"2016-04-16 00:02:00",1550815,8.24,38.27,7.057,1.294,9.01,100.9681,1.769,2.988,82.6,0,109.9,13.2,2.53,0.3
"2016-04-16 00:02:30",1550816,7.688,33.94,7.224,1.361,7.81,100.9706,1.776,2.868,82.1,0,109.9,13.2,2.53,355.9
"2016-04-16 00:03:00",1550817,8.91,36.36,7.159,1.338,8.83,100.9825,1.806,2.996,81.9,0,109.9,13.2,2.56,358.4
"2016-04-16 00:03:30",1550818,8.6,37.3,6.558,1.426,9.23,100.9887,1.822,2.968,81.6,0,109.9,13.2,2.58,359.3
"2016-04-16 00:04:00",1550819,8.73,37.79,6.711,1.395,9.38,100.995,1.838,3.027,81.4,0,109.9,13.2,2.60,359.8
"2016-04-16 00:04:30",1550820,8.63,37.91,6.596,1.298,9.22,101.0023,1.857,3.001,81.1,0,109.9,13.19,2.62,359.9
"2016-04-16 00:05:00",1550821,8.78,37.57,6.597,1.388,9.15,101.0006,1.852,3.023,80.8,0,109.9,13.19,2.61,359.6
"2016-04-16 00:05:30",1550822,9.03,34.59,7.212,1.518,9.11,101.0018,1.855,2.976,80.6,0,109.9,13.19,2.61,356.6
"2016-04-16 00:06:00",1550823,8.47,36.31,7.013,1.448,9.48,101.0009,1.853,3.027,80.5,0,109.9,13.19,2.61,358.3
"2016-04-16 00:06:30",1550824,8.5,36.23,6.91,1.5,9.16,101.0111,1.879,3.038,80.2,0,109.9,13.19,2.64,358.2
"2016-04-16 00:07:00",1550825,8.79,36.51,7.181,1.304,9.21,101.023,1.909,3.045,80,0,109.9,13.19,2.67,358.5
"2016-04-16 00:07:30",1550826,8.52,32.57,7.252,1.48,8.08,101.0351,1.94,2.996,79.78,0,109.9,13.19,2.70,354.6
"2016-04-16 00:08:00",1550827,8.88,34.89,7.037,1.471,9.29,101.0377,1.947,3.08,79.79,0,109.9,13.19,2.71,356.9
"2016-04-16 00:08:30",1550828,8.76,36.84,7.014,1.316,9.38,101.038,1.948,3.063,79.64,0,109.9,13.19,2.71,358.8
"2016-04-16 00:09:00",1550829,8.65,35.99,6.844,1.48,9.5,101.0439,1.963,3.121,79.51,0,109.9,13.19,2.72,358.0
"2016-04-16 00:09:30",1550830,9.28,35.06,7.155,1.385,9.24,101.051,1.981,3.122,79.35,0,109.9,13.2,2.74,357.1
"2016-04-16 00:10:00",1550831,8.75,37.05,6.726,1.225,9.68,101.0564,1.995,3.167,79.27,0,109.9,13.2,2.75,359.0
"2016-04-16 00:10:30",1550832,9.21,35.75,6.663,1.182,9.47,101.0694,2.028,3.173,79.13,0,109.9,13.2,2.79,357.8
"2016-04-16 00:11:00",1550833,9.15,34.33,6.639,1.346,9.22,101.0714,2.033,3.161,78.99,0,109.9,13.2,2.79,356.3
"2016-04-16 00:11:30",1550834,9.14,35.69,6.584,1.279,9.41,101.0739,2.039,3.191,78.9,0,109.9,13.2,2.80,357.7
"2016-04-16 00:12:00",1550835,8.88,36.7,6.031,1.32,9.68,101.0728,2.036,3.24,78.84,0,109.9,13.2,2.80,358.7
"2016-04-16 00:12:30",1550836,9.09,35.67,7.084,1.265,9.05,101.0739,2.039,3.241,78.75,0,109.9,13.2,2.80,357.7
"2016-04-16 00:13:00",1550837,9.7,34.14,6.73,1.182,9.33,101.0793,2.053,3.238,78.67,0,109.9,13.2,2.81,356.1
"2016-04-16 00:13:30",1550838,8.64,35.81,6.73,1.376,9.4,101.0901,2.081,3.235,78.61,0,109.9,13.2,2.84,357.8
"2016-04-16 00:14:00",1550839,8.28,36.61,6.864,1.308,9.4,101.0932,2.089,3.261,78.47,0,109.9,13.2,2.85,358.6
"2016-04-16 00:14:30",1550840,8.36,35.6,7.167,1.338,9.03,101.0997,2.105,3.246,78.36,0,109.9,13.2,2.86,357.6
"2016-04-16 00:15:00",1550841,8.23,34.25,7.697,1.359,8.63,101.1084,2.127,3.224,78.25,0,109.9,13.2,2.89,356.2
"2016-04-16 00:15:30",1550842,7.376,29.94,6.25,1.366,6.839,101.1084,2.127,3.17,78.13,0,109.9,13.2,2.89,351.9
"2016-04-16 00:16:00",1550843,7.824,33.05,7.914,1.468,7.963,101.109,2.129,3.176,78.13,0,109.8,13.2,2.89,355.0
"2016-04-16 00:16:30",1550844,7.998,33,7.07,1.418,8.46,101.1079,2.126,3.274,78.36,0,109.9,13.2,2.89,355.0
"2016-04-16 00:17:00",1550845,7.973,34.03,7.295,1.433,8.79,101.1107,2.133,3.29,78.46,0,109.9,13.2,2.89,356.0
"2016-04-16 00:17:30",1550846,8.26,33.94,6.845,1.359,8.97,101.1155,2.145,3.285,78.62,0,109.9,13.2,2.91,355.9
"2016-04-16 00:18:00",1550847,8.33,35.05,6.774,1.429,9.6,101.1178,2.151,3.332,78.67,0,109.8,13.2,2.91,357.0
"2016-04-16 00:18:30",1550848,8.85,33.5,6.821,1.277,9.35,101.1231,2.165,3.354,78.7,0,109.8,13.2,2.92,355.5
"2016-04-16 00:19:00",1550849,8.81,34.33,6.612,1.248,9.51,101.1248,2.169,3.379,78.69,0,109.9,13.2,2.93,356.3
"2016-04-16 00:19:30",1550850,8.58,32.31,6.372,1.448,9,101.1228,2.164,3.362,78.57,0,109.8,13.2,2.92,354.3
"2016-04-16 00:20:00",1550851,8.89,33.79,6.702,1.353,9.39,101.1217,2.161,3.36,78.74,0,109.9,13.2,2.92,355.8
"2016-04-16 00:20:30",1550852,8.81,32.75,6.754,1.479,9.4,101.1246,2.169,3.369,78.76,0,109.8,13.2,2.93,354.8
"2016-04-16 00:21:00",1550853,8.95,33.4,6.28,1.243,9.11,101.1203,2.158,3.386,78.63,0,109.9,13.19,2.92,355.4
"2016-04-16 00:21:30",1550854,8.7,33.04,6.364,1.221,9.01,101.122,2.162,3.4,78.55,0,109.9,13.19,2.92,355.0
"2016-04-16 00:22:00",1550855,8.21,28.66,7.827,1.726,8.55,101.1229,2.164,3.354,78.38,0,109.9,13.19,2.92,350.7
"2016-04-16 00:22:30",1550856,7.157,28.52,7.206,1.433,8.16,101.1234,2.166,3.332,78.41,0,109.9,13.19,2.93,350.5
"2016-04-16 00:23:00",1550857,5.981,22.01,6.607,1.325,6.602,101.1223,2.163,3.23,78.45,0,109.9,13.19,2.92,344.0
"2016-04-16 00:23:30",1550858,6.228,25.21,6.942,1.379,7.318,101.1251,2.17,3.341,78.64,0,109.9,13.19,2.93,347.2
"2016-04-16 00:24:00",1550859,6.293,26.55,7.504,1.536,8.22,101.1237,2.166,3.31,78.68,0,109.9,13.19,2.93,348.5
"2016-04-16 00:24:30",1550860,6.259,24.34,8,1.513,9.2,101.1251,2.17,3.401,78.83,0,109.9,13.19,2.93,346.3
"2016-04-16 00:25:00",1550861,5.819,19.22,7.049,1.526,9.14,101.1237,2.166,3.37,78.64,0,109.9,13.19,2.93,341.2
"2016-04-16 00:25:30",1550862,5.201,20.38,7.877,1.431,7.964,101.1237,2.166,3.351,78.57,0,109.9,13.19,2.93,342.4
"2016-04-16 00:26:00",1550863,5.036,18.76,6.462,1.185,7.061,101.1243,2.168,3.309,78.58,0,109.9,13.2,2.93,340.8
"2016-04-16 00:26:30",1550864,5.446,19.47,7.543,1.425,7.835,101.1223,2.163,3.258,78.35,0,109.9,13.2,2.92,341.5
"2016-04-16 00:27:00",1550865,5.091,16.32,7.905,1.398,7.718,101.1217,2.161,3.293,78.2,0,109.9,13.2,2.92,338.3
"2016-04-16 00:27:30",1550866,5.757,18.29,7.233,1.484,8.61,101.1208,2.159,3.334,78.07,0,109.9,13.2,2.92,340.3
"2016-04-16 00:28:00",1550867,5.432,14.62,8.63,1.564,8.37,101.1197,2.156,3.392,77.93,0,109.9,13.2,2.92,336.6
"2016-04-16 00:28:30",1550868,5.765,14.8,7.913,1.189,8.29,101.1189,2.154,3.301,77.81,0,109.9,13.2,2.91,336.8
"2016-04-16 00:29:00",1550869,5.461,12.77,6.946,1.614,8.12,101.1197,2.156,3.318,77.89,0,109.9,13.2,2.92,334.8
"2016-04-16 00:29:30",1550870,4.93,13.19,7.73,1.373,7.253,101.1194,2.155,3.31,77.92,0,109.9,13.21,2.92,335.2
"2016-04-16 00:30:00",1550871,5.215,16.67,6.975,1.477,8.14,101.1203,2.158,3.375,78.02,0,109.9,13.21,2.92,338.7
"2016-04-16 00:30:30",1550872,5.727,16.55,8.03,1.479,9.02,101.1197,2.156,3.398,78.06,0,109.9,13.21,2.92,338.5
"2016-04-16 00:31:00",1550873,5.025,15.33,6.455,1.391,7.635,101.1231,2.165,3.235,77.97,0,109.9,13.21,2.92,337.3
"2016-04-16 00:31:30",1550874,4.681,13.27,7.646,1.261,7.473,101.1236,2.166,3.355,78.11,0,109.9,13.21,2.93,335.3
"2016-04-16 00:32:00",1550875,5.257,13.34,8.53,1.342,7.83,101.1253,2.171,3.338,78.11,0,109.9,13.21,2.93,335.3
"2016-04-16 00:32:30",1550876,5.539,14.75,8.3,1.311,8.28,101.1279,2.177,3.306,78.07,0,109.9,13.21,2.94,336.8
"2016-04-16 00:33:00",1550877,6.061,9.91,7.344,1.502,8.49,101.1304,2.184,3.371,78.1,0,109.9,13.21,2.94,331.9
"2016-04-16 00:33:30",1550878,5.459,14.63,9.2,1.465,8.6,101.1341,2.193,3.379,77.98,0,109.9,13.2,2.95,336.6
"2016-04-16 00:34:00",1550879,5.133,9.22,6.209,1.513,7.138,101.1358,2.197,3.332,77.96,0,109.9,13.2,2.96,331.2
"2016-04-16 00:34:30",1550880,5.212,9.25,6.612,1.508,7.655,101.1375,2.202,3.294,78.02,0,109.9,13.21,2.96,331.2
"2016-04-16 00:35:00",1550881,5.467,11.13,9.01,1.624,8.22,101.1372,2.201,3.397,78.18,0,109.9,13.21,2.96,333.1
"2016-04-16 00:35:30",1550882,6.223,3.762,7.166,1.442,7.663,101.1367,2.199,3.366,78.21,0,109.9,13.21,2.96,325.8
"2016-04-16 00:36:00",1550883,6.355,8.03,7.647,1.523,8.52,101.1367,2.199,3.421,78.56,0,109.9,13.21,2.96,330.0
"2016-04-16 00:36:30",1550884,5.8,7.394,7.069,1.354,8.17,101.1364,2.199,3.302,78.64,0,109.9,13.21,2.96,329.4
"2016-04-16 00:37:00",1550885,5.785,4.607,6.45,1.84,7.534,101.1367,2.199,3.361,78.69,0,109.9,13.21,2.96,326.6
"2016-04-16 00:37:30",1550886,5.916,5.585,7.527,1.507,8.12,101.1349,2.195,3.361,78.8,0,109.8,13.2,2.95,327.6
"2016-04-16 00:38:00",1550887,6.413,8.13,6.666,1.515,8.9,101.1364,2.199,3.42,79.12,0,109.9,13.2,2.96,330.1
"2016-04-16 00:38:30",1550888,5.135,9.58,7.59,1.546,7.982,101.1338,2.192,3.346,79.5,0,109.9,13.2,2.95,331.6
"2016-04-16 00:39:00",1550889,5.138,10.32,7.164,1.524,8.06,101.1262,2.173,3.359,79.65,0,109.9,13.2,2.93,332.3
"2016-04-16 00:39:30",1550890,5.886,1.941,8.95,1.203,7.027,101.1202,2.158,3.339,79.61,0,109.9,13.2,2.92,323.9
"2016-04-16 00:40:00",1550891,6,4.877,7.736,1.808,8.08,101.1183,2.153,3.371,79.74,0,109.9,13.2,2.91,326.9
"2016-04-16 00:40:30",1550892,5.504,10.89,8.34,1.433,8.69,101.1177,2.151,3.383,79.87,0,109.9,13.2,2.91,332.9
"2016-04-16 00:41:00",1550893,5.789,4.975,7.936,1.673,8.11,101.1166,2.148,3.332,79.83,0,109.9,13.2,2.91,327.0
"2016-04-16 00:41:30",1550894,5.321,2.154,6.817,1.391,7.087,101.1143,2.142,3.274,79.91,0,109.9,13.2,2.90,324.2
"2016-04-16 00:42:00",1550895,4.805,8.81,8.76,1.303,7.804,101.1064,2.122,3.345,80.2,0,109.9,13.2,2.88,330.8
"2016-04-16 00:42:30",1550896,4.747,7.649,7.402,1.215,7.21,101.1024,2.112,3.218,80.2,0,109.9,13.2,2.87,329.6
"2016-04-16 00:43:00",1550897,4.993,12.1,8.02,1.386,8.29,101.1024,2.112,3.302,80.1,0,109.9,13.2,2.87,334.1
"2016-04-16 00:43:30",1550898,5.653,8.78,7.378,1.437,8.48,101.1019,2.111,3.324,79.71,0,109.8,13.21,2.87,330.8
"2016-04-16 00:44:00",1550899,5.027,7.623,9.08,1.326,7.405,101.1021,2.111,3.262,79.31,0,109.8,13.21,2.87,329.6
"2016-04-16 00:44:30",1550900,4.908,14.8,7.924,1.398,8.15,101.0996,2.105,3.207,79.05,0,109.9,13.21,2.86,336.8
"2016-04-16 00:45:00",1550901,4.805,8.91,7.407,1.569,6.895,101.0973,2.099,3.199,78.87,0,109.9,13.21,2.86,330.9
"2016-04-16 00:45:30",1550902,5.628,10.36,8.34,1.522,8.24,101.0959,2.096,3.264,78.7,0,109.9,13.21,2.85,332.4
"2016-04-16 00:46:00",1550903,5.308,14.16,7.3,1.402,8.66,101.0931,2.088,3.284,78.61,0,109.9,13.21,2.85,336.2
"2016-04-16 00:46:30",1550904,5.36,16.17,7.946,1.24,8.8,101.0925,2.087,3.26,78.36,0,109.9,13.21,2.85,338.2
"2016-04-16 00:47:00",1550905,4.723,13.33,7.364,1.354,8.11,101.0934,2.089,3.294,78.2,0,109.9,13.21,2.85,335.3
"2016-04-16 00:47:30",1550906,5.035,14.72,6.688,1.554,8.38,101.0965,2.097,3.236,77.84,0,109.8,13.21,2.86,336.7
"2016-04-16 00:48:00",1550907,5.052,6.823,6.548,1.431,7.199,101.1019,2.111,3.158,77.49,0,109.8,13.21,2.87,328.8
"2016-04-16 00:48:30",1550908,5.288,14.58,8.69,1.248,7.686,101.103,2.114,3.24,77.27,0,109.9,13.21,2.87,336.6
"2016-04-16 00:49:00",1550909,5.614,21.73,7.562,1.379,8.76,101.103,2.114,3.315,77.37,0,109.9,13.21,2.87,343.7
"2016-04-16 00:49:30",1550910,5.666,18.58,7.197,1.347,8.92,101.1036,2.115,3.285,77.32,0,109.8,13.21,2.87,340.6
"2016-04-16 00:50:00",1550911,4.76,14.52,7.581,1.464,7.819,101.1039,2.116,3.26,77.22,0,109.9,13.21,2.88,336.5
"2016-04-16 00:50:30",1550912,4.719,17.28,7.672,1.427,7.03,101.1044,2.117,3.165,77.18,0,109.8,13.21,2.88,339.3
"2016-04-16 00:51:00",1550913,4.436,16.75,8.02,1.362,7.242,101.1047,2.118,3.263,77.29,0,109.9,13.21,2.88,338.8
"2016-04-16 00:51:30",1550914,5.576,19.4,8.13,1.414,8.4,101.1089,2.129,3.231,77.23,0,109.8,13.21,2.89,341.4
"2016-04-16 00:52:00",1550915,5.23,15.69,7.925,1.395,8.47,101.1149,2.144,3.294,77.26,0,109.8,13.21,2.90,337.7
"2016-04-16 00:52:30",1550916,4.979,19.92,8.88,1.597,8.07,101.1166,2.148,3.298,77.38,0,109.8,13.21,2.91,341.9
"2016-04-16 00:53:00",1550917,4.896,19.83,7.92,1.419,7.979,101.118,2.152,3.289,77.46,0,109.8,13.21,2.91,341.8
"2016-04-16 00:53:30",1550918,4.371,17.28,7.289,1.447,7.416,101.1191,2.155,3.329,77.54,0,109.8,13.21,2.91,339.3
"2016-04-16 00:54:00",1550919,3.449,14.85,6.653,1.072,6.013,101.1157,2.146,3.217,77.56,0,109.8,13.2,2.91,336.9
"2016-04-16 00:54:30",1550920,5.605,22.45,8.04,1.516,7.987,101.1189,2.154,3.305,77.8,0,109.8,13.2,2.91,344.5
"2016-04-16 00:55:00",1550921,5.415,20.69,7.403,1.408,8.92,101.1183,2.153,3.348,77.82,0,109.8,13.2,2.91,342.7
"2016-04-16 00:55:30",1550922,5.107,16.83,7.869,1.444,9.28,101.1166,2.148,3.354,77.67,0,109.8,13.2,2.91,338.8
"2016-04-16 00:56:00",1550923,5.053,20.99,8.17,1.586,8.18,101.1197,2.156,3.314,77.52,0,109.8,13.2,2.92,343.0
"2016-04-16 00:56:30",1550924,4.777,18.04,6.953,1.102,7.118,101.1186,2.153,3.257,77.42,0,109.8,13.2,2.91,340.0
"2016-04-16 00:57:00",1550925,4.224,16.02,7.734,1.285,6.703,101.1183,2.153,3.202,77.12,0,109.8,13.2,2.91,338.0
"2016-04-16 00:57:30",1550926,5.552,22.04,7.822,1.432,7.843,101.114,2.142,3.292,77.04,0,109.8,13.2,2.90,344.0
"2016-04-16 00:58:00",1550927,5.987,24.6,7.179,1.551,8.8,101.1146,2.143,3.347,76.88,0,109.8,13.2,2.90,346.6
"2016-04-16 00:58:30",1550928,5.99,22.82,7.253,1.409,9.26,101.1129,2.139,3.353,76.64,0,109.8,13.2,2.90,344.8
"2016-04-16 00:59:00",1550929,5.505,22.33,8.32,1.556,8.34,101.1163,2.148,3.314,76.44,0,109.8,13.2,2.91,344.3
"2016-04-16 00:59:30",1550930,5.125,20.55,7.239,1.297,7.26,101.1194,2.155,3.243,76.27,0,109.8,13.21,2.92,342.5
"2016-04-16 01:00:00",1550931,5.688,22.17,6.833,1.49,7.383,101.1183,2.153,3.214,76.12,0,109.9,13.21,2.91,344.2
"2016-04-16 01:00:30",1550932,6.159,25.38,7.349,1.589,8.39,101.1174,2.15,3.376,76.12,0,109.8,13.21,2.91,347.4
"2016-04-16 01:01:00",1550933,7.388,29.23,6.947,1.406,9.45,101.1191,2.155,3.364,76.07,0,109.9,13.21,2.91,351.2
"2016-04-16 01:01:30",1550934,7.622,30.04,7.268,1.454,9.49,101.1194,2.156,3.379,75.94,0,109.9,13.22,2.92,352.0
"2016-04-16 01:02:00",1550935,7.001,26.21,7.511,1.504,8.2,101.1214,2.161,3.331,75.74,0,109.9,13.21,2.92,348.2
"2016-04-16 01:02:30",1550936,7.737,30.1,7.291,1.428,9.27,101.1203,2.158,3.363,75.58,0,109.8,13.21,2.92,352.1
"2016-04-16 01:03:00",1550937,7.495,28.34,7.275,1.383,8.72,101.1217,2.161,3.322,75.37,0,109.8,13.21,2.92,350.3
"2016-04-16 01:03:30",1550938,6.726,26.58,7.59,1.389,8.28,101.124,2.167,3.374,75.27,0,109.8,13.21,2.93,348.6
"2016-04-16 01:04:00",1550939,6.967,27.93,7.57,1.345,8.54,101.1308,2.184,3.324,75.17,0,109.8,13.21,2.94,349.9
"2016-04-16 01:04:30",1550940,7.816,31.2,7.24,1.411,9.72,101.1376,2.202,3.386,75.12,0,109.9,13.21,2.96,353.2
"2016-04-16 01:05:00",1550941,7.542,27.44,7.015,1.293,8.03,101.1418,2.213,3.344,75.02,0,109.8,13.21,2.97,349.4
"2016-04-16 01:05:30",1550942,8.61,30.6,7.004,1.541,9.42,101.1432,2.216,3.384,75.1,0,109.8,13.22,2.98,352.6
"2016-04-16 01:06:00",1550943,9.32,33.1,6.907,1.316,9.72,101.1444,2.219,3.42,75.07,0,109.8,13.21,2.98,355.1
"2016-04-16 01:06:30",1550944,8.9,33.06,6.801,1.216,9.77,101.1444,2.219,3.436,74.98,0,109.9,13.21,2.98,355.1
"2016-04-16 01:07:00",1550945,8.35,34.16,6.95,1.348,9.57,101.1452,2.221,3.471,75.09,0,109.9,13.21,2.98,356.2
"2016-04-16 01:07:30",1550946,8.41,34.44,6.189,1.303,9.6,101.1461,2.224,3.478,75.35,0,109.8,13.21,2.98,356.4
"2016-04-16 01:08:00",1550947,8.43,36.53,6.165,1.204,9.4,101.1469,2.226,3.493,75.59,0,109.8,13.21,2.99,358.5
"2016-04-16 01:08:30",1550948,7.997,35.18,7.397,1.378,8.84,101.1509,2.236,3.43,75.65,0,109.8,13.21,3.00,357.2
"2016-04-16 01:09:00",1550949,7.706,33.45,7.447,1.415,8.71,101.1548,2.246,3.474,75.75,0,109.8,13.21,3.01,355.5
"2016-04-16 01:09:30",1550950,6.939,29.19,7.453,1.21,6.983,101.1614,2.263,3.351,75.79,0,109.8,13.21,3.02,351.2
"2016-04-16 01:10:00",1550951,6.847,28.61,7.378,1.231,7.454,101.1628,2.266,3.412,75.98,0,109.8,13.21,3.03,350.6
"2016-04-16 01:10:30",1550952,7.278,36.59,7.432,1.263,9.43,101.1633,2.268,3.44,76.19,0,109.8,13.21,3.03,358.6
"2016-04-16 01:11:00",1550953,7.247,34.2,7.529,1.486,9.48,101.1664,2.275,3.513,76.48,0,109.8,13.2,3.04,356.2
"2016-04-16 01:11:30",1550954,7.088,35.12,7.848,1.59,8.75,101.1662,2.275,3.479,76.65,0,109.8,13.2,3.03,357.1
"2016-04-16 01:12:00",1550955,6.753,35.66,7.673,1.376,9.1,101.1687,2.281,3.492,76.88,0,109.8,13.2,3.04,357.7
"2016-04-16 01:12:30",1550956,5.835,33.31,6.603,1.44,7.693,101.1673,2.278,3.45,77.03,0,109.8,13.2,3.04,355.3
"2016-04-16 01:13:00",1550957,6.465,34.62,7.386,1.444,7.94,101.1639,2.269,3.382,77.09,0,109.8,13.2,3.03,356.6
"2016-04-16 01:13:30",1550958,6.577,31.46,7.392,1.369,7.697,101.1622,2.265,3.417,77.24,0,109.8,13.2,3.02,353.5
"2016-04-16 01:14:00",1550959,6.979,36.46,7.22,1.433,8.9,101.1611,2.262,3.489,77.3,0,109.8,13.2,3.02,358.5
"2016-04-16 01:14:30",1550960,6.787,36.96,7.476,1.381,8.9,101.1571,2.252,3.491,77.28,0,109.8,13.2,3.01,359.0
"2016-04-16 01:15:00",1550961,7.367,37.41,6.868,1.403,9.07,101.1509,2.236,3.485,77.4,0,109.8,13.2,3.00,359.4
"2016-04-16 01:15:30",1550962,7.117,38.15,8.01,1.39,8.98,101.1464,2.224,3.464,77.53,0,109.8,13.2,2.98,0.2
"2016-04-16 01:16:00",1550963,7.335,40.93,8.02,1.856,8.51,101.1438,2.218,3.428,77.5,0,109.8,13.2,2.98,2.9
"2016-04-16 01:16:30",1550964,6.675,37.93,6.946,1.484,7.905,101.1458,2.223,3.393,77.33,0,109.8,13.21,2.98,359.9
"2016-04-16 01:17:00",1550965,6.03,36.86,8.01,1.59,7.616,101.1447,2.22,3.325,77.34,0,109.9,13.21,2.98,358.9
"2016-04-16 01:17:30",1550966,6.661,39.73,7.325,1.663,8.24,101.143,2.216,3.417,77.58,0,109.8,13.21,2.98,1.7
"2016-04-16 01:18:00",1550967,6.497,39.47,7.732,1.481,8.31,101.1353,2.196,3.406,77.77,0,109.8,13.21,2.96,1.5
"2016-04-16 01:18:30",1550968,6.974,42.14,7.641,1.521,9.02,101.1288,2.18,3.429,78.02,0,109.8,13.22,2.94,4.1
"2016-04-16 01:19:00",1550969,6.835,42.54,6.806,1.285,9.23,101.1254,2.171,3.44,78.16,0,109.8,13.22,2.93,4.5
"2016-04-16 01:19:30",1550970,6.305,39.32,7.709,1.396,8.01,101.1257,2.172,3.334,78.28,0,109.8,13.22,2.93,1.3
"2016-04-16 01:20:00",1550971,6.439,37.58,7,1.404,7.94,101.1172,2.15,3.306,78.4,0,109.8,13.22,2.91,359.6
"2016-04-16 01:20:30",1550972,6.1,33.94,6.86,1.395,7.448,101.1119,2.136,3.323,78.32,0,109.8,13.22,2.90,355.9
"2016-04-16 01:21:00",1550973,6.959,38.94,6.745,1.455,9.1,101.1119,2.136,3.377,78.4,0,109.8,13.22,2.90,0.9
"2016-04-16 01:21:30",1550974,7.524,39.31,6.996,1.451,9.17,101.1124,2.138,3.384,78.46,0,109.8,13.22,2.90,1.3
"2016-04-16 01:22:00",1550975,7.547,38.85,7.179,1.422,9.19,101.1079,2.126,3.38,78.34,0,109.8,13.22,2.89,0.8
"2016-04-16 01:22:30",1550976,7.11,36.15,7.065,1.492,8.28,101.0994,2.104,3.281,78.04,0,109.8,13.22,2.86,358.1
"2016-04-16 01:23:00",1550977,7.769,37.46,7.187,1.443,9.15,101.0935,2.089,3.371,77.85,0,109.8,13.22,2.85,359.5
"2016-04-16 01:23:30",1550978,7,34.49,7.11,1.365,7.892,101.094,2.091,3.193,77.41,0,109.8,13.22,2.85,356.5
"2016-04-16 01:24:00",1550979,7.508,38.34,7.229,1.427,9.37,101.0935,2.089,3.338,77.37,0,109.8,13.22,2.85,0.3
"2016-04-16 01:24:30",1550980,7.384,36.99,7.089,1.336,8.86,101.0949,2.093,3.321,77.31,0,109.8,13.22,2.85,359.0
"2016-04-16 01:25:00",1550981,7.562,37.97,6.81,1.324,9.43,101.0938,2.09,3.315,77.43,0,109.8,13.22,2.85,360.0
"2016-04-16 01:25:30",1550982,7.261,37.67,7.338,1.38,8.8,101.0946,2.092,3.329,77.54,0,109.8,13.22,2.85,359.7
"2016-04-16 01:26:00",1550983,6.801,36.4,7.457,1.402,8.12,101.0952,2.094,3.25,77.67,0,109.8,13.22,2.85,358.4
"2016-04-16 01:26:30",1550984,7.031,37.26,7.254,1.406,8.65,101.0969,2.098,3.237,77.88,0,109.8,13.22,2.86,359.3
"2016-04-16 01:27:00",1550985,7.039,35.57,7.313,1.366,8.21,101.1003,2.107,3.251,78.07,0,109.8,13.21,2.87,357.6
"2016-04-16 01:27:30",1550986,7.513,36.99,7.145,1.416,8.95,101.102,2.111,3.306,78.2,0,109.8,13.21,2.87,359.0
"2016-04-16 01:28:00",1550987,7.181,37.56,7.433,1.303,9,101.1034,2.115,3.301,78.28,0,109.8,13.21,2.87,359.6
"2016-04-16 01:28:30",1550988,7.712,38.43,6.743,1.366,9.47,101.1025,2.112,3.319,78.39,0,109.8,13.2,2.87,0.4
"2016-04-16 01:29:00",1550989,7.667,36.69,7.044,1.36,8.91,101.1031,2.114,3.297,78.32,0,109.8,13.21,2.87,358.7
"2016-04-16 01:29:30",1550990,7.332,33.4,7.462,1.411,8.01,101.1057,2.12,3.251,78.22,0,109.8,13.21,2.88,355.4
"2016-04-16 01:30:00",1550991,7.472,33.15,7.296,1.38,8.28,101.1088,2.128,3.264,78.16,0,109.8,13.2,2.89,355.1
"2016-04-16 01:30:30",1550992,8.32,36.24,6.911,1.399,9.44,101.1096,2.13,3.3,78.06,0,109.8,13.2,2.89,358.2
"2016-04-16 01:31:00",1550993,8.17,34.26,7.174,1.403,8.94,101.1147,2.144,3.293,77.92,0,109.8,13.2,2.90,356.3
"2016-04-16 01:31:30",1550994,8.47,34.43,7.119,1.374,9.29,101.1144,2.143,3.306,77.8,0,109.8,13.2,2.90,356.4
"2016-04-16 01:32:00",1550995,8.55,34.36,7.148,1.38,9.14,101.1167,2.149,3.295,77.72,0,109.8,13.2,2.91,356.4
"2016-04-16 01:32:30",1550996,9.02,34.4,6.817,1.363,9.87,101.1156,2.146,3.322,77.67,0,109.8,13.21,2.91,356.4
"2016-04-16 01:33:00",1550997,9.07,35.42,6.616,1.35,9.74,101.1144,2.143,3.374,77.6,0,109.8,13.21,2.90,357.4
"2016-04-16 01:33:30",1550998,9.26,35.87,6.649,1.261,9.62,101.1164,2.148,3.383,77.51,0,109.8,13.21,2.91,357.9
"2016-04-16 01:34:00",1550999,8.99,37.01,6.674,1.261,9.71,101.1167,2.149,3.349,77.38,0,109.8,13.21,2.91,359.0
"2016-04-16 01:34:30",1551000,8.6,36.87,6.289,1.254,9.37,101.119,2.154,3.366,77.4,0,109.8,13.21,2.91,358.9
"2016-04-16 01:35:00",1551001,9.57,35.26,6.521,1.215,9.49,101.1227,2.164,3.382,77.49,0,109.8,13.21,2.92,357.3
"2016-04-16 01:35:30",1551002,9.34,35.16,6.861,1.261,9.78,101.1261,2.173,3.37,77.42,0,109.8,13.21,2.93,357.2
"2016-04-16 01:36:00",1551003,9.09,34.72,6.939,1.366,9.61,101.1292,2.18,3.377,77.31,0,109.8,13.21,2.94,356.7
"2016-04-16 01:36:30",1551004,9.43,35.15,6.41,1.272,9.53,101.1311,2.185,3.414,77.24,0,109.8,13.21,2.94,357.1
"2016-04-16 01:37:00",1551005,9.34,35.01,6.774,1.296,9.49,101.1329,2.19,3.395,77.08,0,109.8,13.21,2.95,357.0
"2016-04-16 01:37:30",1551006,9.57,33.81,6.728,1.231,9.72,101.1326,2.189,3.387,77.01,0,109.8,13.21,2.95,355.8
"2016-04-16 01:38:00",1551007,9.64,35.12,6.451,1.312,9.7,101.1368,2.2,3.429,76.94,0,109.8,13.21,2.96,357.1
"2016-04-16 01:38:30",1551008,9.46,34.84,6.186,1.366,9.8,101.1371,2.201,3.41,76.85,0,109.8,13.21,2.96,356.8
"2016-04-16 01:39:00",1551009,9.55,34.81,6.436,1.251,9.73,101.1402,2.209,3.417,76.75,0,109.8,13.21,2.97,356.8
"2016-04-16 01:39:30",1551010,9.47,34.13,6.593,1.219,9.49,101.1433,2.217,3.412,76.65,0,109.8,13.21,2.98,356.1
"2016-04-16 01:40:00",1551011,9.2,33.81,6.973,1.236,9.14,101.1484,2.229,3.422,76.51,0,109.8,13.21,2.99,355.8
"2016-04-16 01:40:30",1551012,8.93,35.21,6.492,1.369,9.9,101.1535,2.243,3.43,76.51,0,109.8,13.21,3.00,357.2
"2016-04-16 01:41:00",1551013,8.9,35.85,6.234,1.353,9.73,101.1527,2.24,3.455,76.57,0,109.8,13.21,3.00,357.9
"2016-04-16 01:41:30",1551014,9.39,34.5,6.83,1.318,9.34,101.1524,2.24,3.47,76.63,0,109.8,13.21,3.00,356.5
"2016-04-16 01:42:00",1551015,9.35,34.46,6.535,1.284,9.62,101.1518,2.238,3.457,76.51,0,109.8,13.21,3.00,356.5
"2016-04-16 01:42:30",1551016,9.39,34.69,6.564,1.198,9.58,101.153,2.241,3.466,76.37,0,109.8,13.21,3.00,356.7
"2016-04-16 01:43:00",1551017,9.12,33.58,7.126,1.324,9.63,101.1524,2.24,3.435,76.18,0,109.8,13.21,3.00,355.6
"2016-04-16 01:43:30",1551018,9.26,34.92,6.202,1.303,9.8,101.153,2.241,3.478,76.02,0,109.8,13.21,3.00,356.9
"2016-04-16 01:44:00",1551019,9.04,35.9,6.187,1.266,9.88,101.1558,2.248,3.504,75.89,0,109.8,13.21,3.01,357.9
"2016-04-16 01:44:30",1551020,9.27,33.82,6.95,1.303,9.4,101.1609,2.261,3.472,75.72,0,109.8,13.21,3.02,355.8
"2016-04-16 01:45:00",1551021,8.87,34.97,6.387,1.261,9.57,101.1663,2.275,3.482,75.49,0,109.8,13.21,3.04,357.0
"2016-04-16 01:45:30",1551022,7.953,35.46,6.923,1.519,9.22,101.1714,2.288,3.437,75.39,0,109.8,13.21,3.05,357.5
"2016-04-16 01:46:00",1551023,7.478,34.54,7.6,1.356,8.53,101.1764,2.301,3.462,75.61,0,109.8,13.21,3.06,356.5
"2016-04-16 01:46:30",1551024,7.557,31.08,6.842,1.343,7.532,101.1838,2.32,3.369,75.68,0,109.8,13.21,3.08,353.1
"2016-04-16 01:47:00",1551025,7.967,32.2,7.341,1.427,8.23,101.1863,2.326,3.382,75.58,0,109.8,13.21,3.09,354.2
"2016-04-16 01:47:30",1551026,8.68,35.47,7.236,1.23,9.76,101.1872,2.328,3.543,75.64,0,109.8,13.21,3.09,357.5
"2016-04-16 01:48:00",1551027,8.59,34.6,6.935,1.407,9.78,101.1863,2.326,3.514,75.63,0,109.8,13.21,3.09,356.6
"2016-04-16 01:48:30",1551028,8.79,34.13,7.056,1.453,9.5,101.1866,2.327,3.495,75.4,0,109.8,13.21,3.09,356.1
"2016-04-16 01:49:00",1551029,9.14,34.69,6.522,1.18,9.92,101.1875,2.329,3.534,75.32,0,109.8,13.21,3.09,356.7
"2016-04-16 01:49:30",1551030,9.3,34.71,6.612,1.406,9.97,101.1858,2.325,3.522,75.28,0,109.8,13.21,3.09,356.7